Zurück zum Katalog

DELTA 1 DEB

AktivSSO
NORAD 37656·DEBRIS·🇺🇸 United States

Gestartet Mar 5, 1978 von Vandenberg Space Force Base

Loading…

Nächste Überflüge (nächste 24 Stunden)

TLE

AlterndSource: Space-Track

Epoche: Sep 3, 2026, 05:33 UTC

1 37656U 78026JT  26246.23149503  .00000164  00000-0  11507-3 0  9995
2 37656  99.1537 249.3695 0018812 163.8281 196.3494 14.11815459202953

Verfolge DELTA 1 DEB in Echtzeit mit AllMySat

Download on the App Store